20040118,000022,1054644,34.067167,-121.401333,14.920,32.835,NaN,NaN
20040118,000052,1054674,34.067167,-121.402833,14.919,32.835,NaN,NaN
20040118,000122,1054704,34.067167,-121.404333,14.913,32.834,NaN,NaN
20040118,000152,1054734,34.067167,-121.405833,14.907,32.833,NaN,NaN
20040118,000222,1054764,34.067167,-121.407167,14.904,32.832,NaN,NaN
20040118,000252,1054794,34.067167,-121.408667,14.900,32.831,NaN,NaN
20040118,000322,1054824,34.067167,-121.410167,14.896,32.828,NaN,NaN
20040118,000352,1054854,34.067167,-121.411667,14.897,32.828,NaN,NaN
20040118,000422,1054884,34.067167,-121.413000,14.896,32.827,NaN,NaN
20040118,000452,1054914,34.067167,-121.414500,14.898,32.829,NaN,NaN
20040118,000522,1054944,34.067333,-121.415833,14.894,32.833,NaN,NaN
20040118,000552,1054974,34.067333,-121.417333,14.891,32.835,NaN,NaN
20040118,000622,1055004,34.067333,-121.418833,14.887,32.836,NaN,NaN
20040118,000652,1055034,34.067333,-121.420333,14.888,32.835,NaN,NaN
20040118,000722,1055064,34.067333,-121.421833,14.871,32.837,NaN,NaN
20040118,000752,1055094,34.067333,-121.423333,14.863,32.832,NaN,NaN
20040118,000822,1055124,34.067333,-121.424833,14.863,32.842,NaN,NaN
20040118,000852,1055154,34.067333,-121.426167,14.867,32.840,NaN,NaN
20040118,000922,1055184,34.067500,-121.427667,14.862,32.842,NaN,NaN
20040118,000952,1055214,34.067500,-121.429167,14.857,32.843,NaN,NaN
20040118,001022,1055244,34.067500,-121.430500,14.846,32.844,NaN,NaN
20040118,001052,1055274,34.067500,-121.431833,14.840,32.840,NaN,NaN
20040118,001122,1055304,34.067500,-121.433333,14.847,32.842,NaN,NaN
20040118,001152,1055334,34.067500,-121.434833,14.837,32.843,NaN,NaN
20040118,001222,1055364,34.067500,-121.436167,14.819,32.840,NaN,NaN
20040118,001252,1055394,34.067500,-121.437667,14.832,32.840,NaN,NaN
20040118,001322,1055424,34.067333,-121.439167,14.856,32.842,NaN,NaN
20040118,001352,1055454,34.066833,-121.440500,14.865,32.844,NaN,NaN
20040118,001422,1055484,34.066167,-121.441833,14.870,32.844,NaN,NaN
20040118,001452,1055514,34.065667,-121.443167,14.865,32.844,NaN,NaN
20040118,001522,1055544,34.065000,-121.444333,14.855,32.843,NaN,NaN
20040118,001552,1055574,34.064167,-121.445667,14.870,32.844,NaN,NaN
20040118,001622,1055604,34.063500,-121.446833,14.884,32.845,NaN,NaN
20040118,001652,1055634,34.062833,-121.448167,14.886,32.845,NaN,NaN
20040118,001722,1055664,34.062000,-121.449333,14.889,32.845,NaN,NaN
20040118,001752,1055694,34.061333,-121.450500,14.887,32.847,NaN,NaN
20040118,001822,1055724,34.060500,-121.451833,14.881,32.848,NaN,NaN
20040118,001852,1055754,34.059833,-121.453000,14.860,32.847,NaN,NaN
20040118,001922,1055784,34.059167,-121.454167,14.865,32.845,NaN,NaN
20040118,001952,1055814,34.058333,-121.455500,14.883,32.847,NaN,NaN
20040118,002022,1055844,34.057667,-121.456667,14.890,32.847,NaN,NaN
20040118,002052,1055874,34.056833,-121.457833,14.893,32.845,NaN,NaN
20040118,002122,1055904,34.056167,-121.459167,14.891,32.845,NaN,NaN
20040118,002152,1055934,34.055333,-121.460333,14.892,32.843,NaN,NaN
20040118,002222,1055964,34.054667,-121.461500,14.896,32.844,NaN,NaN
20040118,002252,1055994,34.053833,-121.462667,14.894,32.843,NaN,NaN
20040118,002322,1056024,34.053167,-121.464000,14.894,32.840,NaN,NaN
20040118,002352,1056054,34.052333,-121.465167,14.895,32.841,NaN,NaN
20040118,002422,1056084,34.051500,-121.466333,14.893,32.843,NaN,NaN
20040118,002452,1056114,34.050833,-121.467667,14.893,32.843,NaN,NaN
20040118,002522,1056144,34.050000,-121.468833,14.894,32.844,NaN,NaN
20040118,002552,1056174,34.049333,-121.470000,14.895,32.846,NaN,NaN
20040118,002622,1056204,34.048500,-121.471333,14.899,32.848,NaN,NaN
20040118,002652,1056234,34.047667,-121.472500,14.897,32.850,NaN,NaN
20040118,002722,1056264,34.047000,-121.473667,14.887,32.850,NaN,NaN
20040118,002752,1056294,34.046167,-121.475000,14.882,32.850,NaN,NaN
20040118,002822,1056324,34.045333,-121.476167,14.879,32.847,NaN,NaN
20040118,002852,1056354,34.044667,-121.477333,14.876,32.846,NaN,NaN
20040118,002922,1056384,34.043833,-121.478667,14.876,32.845,NaN,NaN
20040118,002952,1056414,34.043167,-121.479833,14.876,32.844,NaN,NaN
20040118,003022,1056444,34.042333,-121.481000,14.879,32.844,NaN,NaN
20040118,003052,1056474,34.041500,-121.482333,14.883,32.844,NaN,NaN
20040118,003122,1056504,34.040833,-121.483500,14.886,32.845,NaN,NaN
20040118,003152,1056534,34.040167,-121.484667,14.891,32.846,NaN,NaN
20040118,003222,1056564,34.039333,-121.485833,14.891,32.846,NaN,NaN
20040118,003252,1056594,34.038500,-121.487000,14.895,32.847,NaN,NaN
20040118,003322,1056624,34.037833,-121.488333,14.897,32.848,NaN,NaN
20040118,003352,1056654,34.037000,-121.489500,14.900,32.847,NaN,NaN
20040118,003422,1056684,34.036167,-121.490667,14.906,32.848,NaN,NaN
20040118,003452,1056714,34.035333,-121.492000,14.908,32.850,NaN,NaN
20040118,003522,1056744,34.034667,-121.493167,14.909,32.851,NaN,NaN
20040118,003552,1056774,34.033833,-121.494500,14.905,32.851,NaN,NaN
20040118,003622,1056804,34.033167,-121.495667,14.904,32.852,NaN,NaN
20040118,003652,1056834,34.032333,-121.497000,14.906,32.852,NaN,NaN
20040118,003722,1056864,34.031500,-121.498167,14.907,32.853,NaN,NaN
20040118,003752,1056894,34.030833,-121.499333,14.909,32.852,NaN,NaN
20040118,003822,1056924,34.030000,-121.500667,14.912,32.852,NaN,NaN
20040118,003852,1056954,34.029333,-121.502000,14.913,32.853,NaN,NaN
20040118,003922,1056984,34.028500,-121.503167,14.915,32.854,NaN,NaN
20040118,003952,1057014,34.027667,-121.504333,14.915,32.853,NaN,NaN
20040118,004022,1057044,34.027000,-121.505667,14.915,32.854,NaN,NaN
20040118,004052,1057074,34.026167,-121.506833,14.915,32.855,NaN,NaN
20040118,004122,1057104,34.025500,-121.508167,14.910,32.853,NaN,NaN
20040118,004152,1057134,34.024667,-121.509333,14.907,32.852,NaN,NaN
20040118,004222,1057164,34.023833,-121.510667,14.910,32.853,NaN,NaN
20040118,004252,1057194,34.023167,-121.511833,14.910,32.853,NaN,NaN
20040118,004322,1057224,34.022333,-121.513167,14.906,32.854,NaN,NaN
20040118,004352,1057254,34.021667,-121.514500,14.901,32.852,NaN,NaN
20040118,004422,1057284,34.020833,-121.515667,14.899,32.852,NaN,NaN
20040118,004452,1057314,34.020000,-121.517000,14.897,32.850,NaN,NaN
20040118,004522,1057344,34.019333,-121.518167,14.897,32.850,NaN,NaN
20040118,004552,1057374,34.018500,-121.519500,14.900,32.850,NaN,NaN
20040118,004622,1057404,34.017833,-121.520667,14.900,32.851,NaN,NaN
20040118,004652,1057434,34.017000,-121.522000,14.898,32.851,NaN,NaN
20040118,004722,1057464,34.016333,-121.523167,14.894,32.850,NaN,NaN
20040118,004752,1057494,34.015500,-121.524500,14.894,32.849,NaN,NaN
20040118,004822,1057524,34.014833,-121.525667,14.891,32.848,NaN,NaN
20040118,004852,1057554,34.014000,-121.527000,14.891,32.848,NaN,NaN
20040118,004922,1057584,34.013333,-121.528167,14.890,32.847,NaN,NaN
20040118,004952,1057614,34.012500,-121.529500,14.888,32.847,NaN,NaN
20040118,005022,1057644,34.011833,-121.530833,14.887,32.847,NaN,NaN
20040118,005052,1057674,34.011167,-121.532000,14.886,32.849,NaN,NaN
20040118,005122,1057704,34.010333,-121.533333,14.885,32.848,NaN,NaN
20040118,005152,1057734,34.009500,-121.534500,14.880,32.848,NaN,NaN
20040118,005222,1057764,34.008833,-121.535833,14.879,32.847,NaN,NaN
20040118,005252,1057794,34.008167,-121.537000,14.877,32.847,NaN,NaN
20040118,005322,1057824,34.007333,-121.538333,14.876,32.847,NaN,NaN
20040118,005352,1057854,34.006667,-121.539500,14.874,32.847,NaN,NaN
20040118,005422,1057884,34.005833,-121.540667,14.873,32.847,NaN,NaN
20040118,005452,1057914,34.005167,-121.542000,14.871,32.846,NaN,NaN
20040118,005522,1057944,34.004500,-121.543167,14.869,32.846,NaN,NaN
20040118,005552,1057974,34.003667,-121.544333,14.869,32.847,NaN,NaN
20040118,005622,1058004,34.003000,-121.545667,14.865,32.846,NaN,NaN
20040118,005652,1058034,34.002167,-121.546833,14.863,32.845,NaN,NaN
20040118,005722,1058064,34.001500,-121.548000,14.861,32.846,NaN,NaN
20040118,005752,1058094,34.000833,-121.549333,14.861,32.845,NaN,NaN
20040118,005822,1058124,34.000000,-121.550500,14.859,32.847,NaN,NaN
20040118,005852,1058154,33.999333,-121.551833,14.858,32.845,NaN,NaN
20040118,005922,1058184,33.998500,-121.553000,14.858,32.846,NaN,NaN
20040118,005952,1058214,33.997833,-121.554167,14.857,32.847,NaN,NaN
20040118,010022,1058244,33.997000,-121.555500,14.857,32.845,NaN,NaN
20040118,010052,1058274,33.996333,-121.556667,14.857,32.845,NaN,NaN
20040118,010122,1058304,33.995500,-121.558000,14.855,32.845,NaN,NaN
20040118,010152,1058334,33.994833,-121.559167,14.856,32.846,NaN,NaN
20040118,010222,1058364,33.994000,-121.560500,14.856,32.845,NaN,NaN
20040118,010252,1058394,33.993333,-121.561667,14.854,32.846,NaN,NaN
20040118,010322,1058424,33.992667,-121.563000,14.855,32.846,NaN,NaN
20040118,010352,1058454,33.991833,-121.564167,14.855,32.845,NaN,NaN
20040118,010422,1058484,33.991167,-121.565500,14.856,32.846,NaN,NaN
20040118,010452,1058514,33.990333,-121.566667,14.851,32.845,NaN,NaN
20040118,010522,1058544,33.989667,-121.568000,14.848,32.844,NaN,NaN
20040118,010552,1058574,33.988833,-121.569167,14.846,32.844,NaN,NaN
20040118,010622,1058604,33.988167,-121.570333,14.845,32.843,NaN,NaN
20040118,010652,1058634,33.987333,-121.571667,14.844,32.842,NaN,NaN
20040118,010722,1058664,33.986667,-121.572833,14.841,32.844,NaN,NaN
20040118,010752,1058694,33.986000,-121.574000,14.842,32.843,NaN,NaN
20040118,010822,1058724,33.985167,-121.575333,14.840,32.844,NaN,NaN
20040118,010852,1058754,33.984500,-121.576500,14.839,32.844,NaN,NaN
20040118,010922,1058784,33.983667,-121.577833,14.839,32.844,NaN,NaN
20040118,010952,1058814,33.982833,-121.579000,14.836,32.843,NaN,NaN
20040118,011022,1058844,33.982000,-121.580167,14.835,32.843,NaN,NaN
20040118,011052,1058874,33.981167,-121.581333,14.835,32.844,NaN,NaN
20040118,011122,1058904,33.980333,-121.582500,14.835,32.845,NaN,NaN
20040118,011152,1058934,33.979667,-121.583667,14.834,32.844,NaN,NaN
20040118,011222,1058964,33.978833,-121.585000,14.832,32.845,NaN,NaN
20040118,011252,1058994,33.978000,-121.586167,14.829,32.845,NaN,NaN
20040118,011322,1059024,33.977167,-121.587333,14.829,32.845,NaN,NaN
20040118,011352,1059054,33.976333,-121.588500,14.829,32.845,NaN,NaN
20040118,011422,1059084,33.975500,-121.589667,14.830,32.846,NaN,NaN
20040118,011452,1059114,33.974667,-121.590833,14.829,32.846,NaN,NaN
20040118,011522,1059144,33.973833,-121.592000,14.830,32.846,NaN,NaN
20040118,011552,1059174,33.973167,-121.593167,14.829,32.847,NaN,NaN
20040118,011622,1059204,33.972333,-121.594333,14.827,32.847,NaN,NaN
20040118,011652,1059234,33.971500,-121.595500,14.827,32.846,NaN,NaN
20040118,011722,1059264,33.970667,-121.596667,14.825,32.846,NaN,NaN
20040118,011752,1059294,33.969833,-121.597833,14.825,32.846,NaN,NaN
20040118,011822,1059324,33.969167,-121.599000,14.827,32.847,NaN,NaN
20040118,011852,1059354,33.968333,-121.600167,14.826,32.848,NaN,NaN
20040118,011922,1059384,33.967500,-121.601333,14.826,32.848,NaN,NaN
20040118,011952,1059414,33.966667,-121.602500,14.825,32.848,NaN,NaN
20040118,012022,1059444,33.965833,-121.603667,14.826,32.848,NaN,NaN
20040118,012052,1059474,33.965000,-121.604833,14.823,32.847,NaN,NaN
20040118,012122,1059504,33.964167,-121.606000,14.819,32.846,NaN,NaN
20040118,012152,1059534,33.963333,-121.607167,14.817,32.846,NaN,NaN
20040118,012222,1059564,33.962667,-121.608333,14.815,32.846,NaN,NaN
20040118,012252,1059594,33.961833,-121.609500,14.817,32.845,NaN,NaN
20040118,012322,1059624,33.961000,-121.610667,14.815,32.845,NaN,NaN
20040118,012352,1059654,33.960167,-121.611833,14.813,32.845,NaN,NaN
20040118,012422,1059684,33.959333,-121.613000,14.812,32.844,NaN,NaN
20040118,012452,1059714,33.958500,-121.614167,14.811,32.845,NaN,NaN
20040118,012522,1059744,33.957667,-121.615333,14.810,32.844,NaN,NaN
20040118,012552,1059774,33.956833,-121.616667,14.807,32.843,NaN,NaN
20040118,012622,1059804,33.956000,-121.617833,14.805,32.844,NaN,NaN
20040118,012652,1059834,33.955167,-121.619000,14.806,32.843,NaN,NaN
20040118,012722,1059864,33.954333,-121.620167,14.805,32.844,NaN,NaN
20040118,012752,1059894,33.953500,-121.621333,14.805,32.844,NaN,NaN
20040118,012822,1059924,33.952667,-121.622500,14.804,32.844,NaN,NaN
20040118,012852,1059954,33.951833,-121.623667,14.803,32.843,NaN,NaN
20040118,012922,1059984,33.951167,-121.625000,14.799,32.843,NaN,NaN
20040118,012952,1060014,33.950167,-121.626167,14.796,32.843,NaN,NaN
20040118,013022,1060044,33.949500,-121.627333,14.795,32.846,NaN,NaN
20040118,013052,1060074,33.948667,-121.628500,14.794,32.845,NaN,NaN
20040118,013122,1060104,33.947833,-121.629833,14.792,32.845,NaN,NaN
20040118,013152,1060134,33.947000,-121.631000,14.789,32.845,NaN,NaN
20040118,013222,1060164,33.946167,-121.632167,14.784,32.843,NaN,NaN
20040118,013252,1060194,33.945333,-121.633333,14.781,32.843,NaN,NaN
20040118,013322,1060224,33.944500,-121.634667,14.778,32.843,NaN,NaN
20040118,013352,1060254,33.943667,-121.635833,14.777,32.842,NaN,NaN
20040118,013422,1060284,33.943000,-121.637000,14.776,32.842,NaN,NaN
20040118,013452,1060314,33.942167,-121.638167,14.775,32.843,NaN,NaN
20040118,013522,1060344,33.941333,-121.639500,14.773,32.841,NaN,NaN
20040118,013552,1060374,33.940500,-121.640667,14.773,32.841,NaN,NaN
20040118,013622,1060404,33.939833,-121.641833,14.775,32.843,NaN,NaN
20040118,013652,1060434,33.939000,-121.643000,14.776,32.845,NaN,NaN
20040118,013722,1060464,33.938000,-121.644167,14.776,32.845,NaN,NaN
20040118,013752,1060494,33.937333,-121.645500,14.782,32.846,NaN,NaN
20040118,013822,1060524,33.936500,-121.646667,14.790,32.850,NaN,NaN
20040118,013852,1060554,33.935667,-121.647833,14.789,32.851,NaN,NaN
20040118,013922,1060584,33.934833,-121.649000,14.790,32.852,NaN,NaN
20040118,013952,1060614,33.934000,-121.650167,14.796,32.853,NaN,NaN
20040118,014022,1060644,33.933167,-121.651500,14.803,32.855,NaN,NaN
20040118,014052,1060674,33.932333,-121.652667,14.806,32.856,NaN,NaN
20040118,014122,1060704,33.931667,-121.653833,14.810,32.859,NaN,NaN
20040118,014152,1060734,33.930833,-121.655167,14.814,32.861,NaN,NaN
20040118,014222,1060764,33.930000,-121.656333,14.816,32.863,NaN,NaN
20040118,014252,1060794,33.929167,-121.657500,14.816,32.866,NaN,NaN
20040118,014322,1060824,33.928333,-121.658667,14.815,32.866,NaN,NaN
20040118,014352,1060854,33.927500,-121.660000,14.811,32.867,NaN,NaN
20040118,014422,1060884,33.926667,-121.661167,14.810,32.868,NaN,NaN
20040118,014452,1060914,33.926000,-121.662333,14.808,32.868,NaN,NaN
20040118,014522,1060944,33.925167,-121.663500,14.804,32.869,NaN,NaN
20040118,014552,1060974,33.924333,-121.664833,14.802,32.869,NaN,NaN
20040118,014622,1061004,33.923500,-121.666000,14.798,32.869,NaN,NaN
20040118,014652,1061034,33.922667,-121.667167,14.798,32.870,NaN,NaN
20040118,014722,1061064,33.922000,-121.668333,14.796,32.871,NaN,NaN
20040118,014752,1061094,33.921167,-121.669667,14.790,32.867,NaN,NaN
20040118,014822,1061124,33.920333,-121.670833,14.782,32.868,NaN,NaN
20040118,014852,1061154,33.919500,-121.672000,14.776,32.868,NaN,NaN
20040118,014922,1061184,33.918667,-121.673167,14.772,32.867,NaN,NaN
20040118,014952,1061214,33.917833,-121.674333,14.763,32.868,NaN,NaN
20040118,015022,1061244,33.917000,-121.675667,14.757,32.868,NaN,NaN
20040118,015052,1061274,33.916333,-121.676667,14.751,32.867,NaN,NaN
20040118,015122,1061304,33.915500,-121.678000,14.745,32.866,NaN,NaN
20040118,015152,1061334,33.914667,-121.679167,14.739,32.867,NaN,NaN
20040118,015222,1061364,33.913833,-121.680333,14.735,32.867,NaN,NaN
20040118,015252,1061394,33.913167,-121.681667,14.730,32.866,NaN,NaN
20040118,015322,1061424,33.912333,-121.682667,14.727,32.865,NaN,NaN
20040118,015352,1061454,33.911500,-121.683833,14.724,32.865,NaN,NaN
20040118,015422,1061484,33.910667,-121.685167,14.722,32.866,NaN,NaN
20040118,015452,1061514,33.909833,-121.686333,14.722,32.869,NaN,NaN
20040118,015522,1061544,33.909000,-121.687500,14.723,32.871,NaN,NaN
20040118,015552,1061574,33.908167,-121.688667,14.718,32.874,NaN,NaN
20040118,015622,1061604,33.907333,-121.690000,14.713,32.876,NaN,NaN
20040118,015652,1061634,33.906667,-121.691167,14.706,32.877,NaN,NaN
20040118,015722,1061664,33.905833,-121.692333,14.699,32.876,NaN,NaN
20040118,015752,1061694,33.905000,-121.693500,14.687,32.877,NaN,NaN
20040118,015822,1061724,33.904167,-121.694833,14.675,32.877,NaN,NaN
20040118,015852,1061754,33.903333,-121.696000,14.662,32.877,NaN,NaN
20040118,015922,1061784,33.902500,-121.697167,14.648,32.877,NaN,NaN
20040118,015952,1061814,33.901667,-121.698333,14.634,32.876,NaN,NaN
20040118,020022,1061844,33.900833,-121.699500,14.615,32.878,NaN,NaN
20040118,020052,1061874,33.900167,-121.700833,14.596,32.880,NaN,NaN
20040118,020122,1061904,33.899333,-121.702000,14.579,32.879,NaN,NaN
20040118,020152,1061934,33.898667,-121.703333,14.562,32.882,NaN,NaN
20040118,020222,1061964,33.897833,-121.704667,14.552,32.881,NaN,NaN
20040118,020252,1061994,33.897167,-121.705833,14.542,32.882,NaN,NaN
20040118,020322,1062024,33.896333,-121.707167,14.511,32.887,NaN,NaN
20040118,020352,1062054,33.895667,-121.708333,14.253,32.949,NaN,NaN
20040118,020422,1062084,33.894833,-121.709667,14.065,32.954,NaN,NaN
20040118,020452,1062114,33.894167,-121.710833,14.018,32.951,NaN,NaN
20040118,020522,1062144,33.893333,-121.712167,14.001,32.945,NaN,NaN
20040118,020552,1062174,33.892667,-121.713333,13.999,32.941,NaN,NaN
20040118,020621,1062203,33.891833,-121.714667,13.991,32.944,NaN,NaN
20040118,020651,1062233,33.891000,-121.715833,13.986,32.946,NaN,NaN
20040118,020721,1062263,33.890333,-121.717167,13.988,32.944,NaN,NaN
20040118,020751,1062293,33.889500,-121.718333,13.981,32.949,NaN,NaN
20040118,020821,1062323,33.888667,-121.719667,13.979,32.951,NaN,NaN
20040118,020851,1062353,33.888000,-121.720833,13.978,32.953,NaN,NaN
20040118,020921,1062383,33.887167,-121.722167,13.976,32.956,NaN,NaN
20040118,020951,1062413,33.886333,-121.723333,13.982,32.953,NaN,NaN
20040118,021021,1062443,33.885500,-121.724667,13.988,32.946,NaN,NaN
20040118,021051,1062473,33.884833,-121.725833,13.989,32.941,NaN,NaN
20040118,021121,1062503,33.884000,-121.727167,13.986,32.941,NaN,NaN
20040118,021151,1062533,33.883167,-121.728333,13.986,32.944,NaN,NaN
20040118,021221,1062563,33.882333,-121.729500,13.982,32.949,NaN,NaN
20040118,021251,1062593,33.881667,-121.730833,13.978,32.950,NaN,NaN
20040118,021321,1062623,33.880833,-121.732000,13.976,32.950,NaN,NaN
20040118,021351,1062653,33.880000,-121.733333,13.977,32.951,NaN,NaN
20040118,021421,1062683,33.879333,-121.734500,13.983,32.946,NaN,NaN
20040118,021451,1062713,33.878500,-121.735833,13.988,32.941,NaN,NaN
20040118,021521,1062743,33.877667,-121.737000,13.991,32.940,NaN,NaN
20040118,021551,1062773,33.876833,-121.738167,13.997,32.938,NaN,NaN
20040118,021621,1062803,33.876000,-121.739500,14.006,32.933,NaN,NaN
20040118,021651,1062833,33.875167,-121.740667,14.010,32.932,NaN,NaN
20040118,021721,1062863,33.874500,-121.742000,14.009,32.929,NaN,NaN
20040118,021751,1062893,33.873667,-121.743167,14.014,32.928,NaN,NaN
20040118,021821,1062923,33.872833,-121.744500,14.022,32.928,NaN,NaN
20040118,021851,1062953,33.872000,-121.745667,14.031,32.923,NaN,NaN
20040118,021921,1062983,33.871167,-121.747000,14.036,32.922,NaN,NaN
20040118,021951,1063013,33.870333,-121.748167,14.040,32.920,NaN,NaN
20040118,022021,1063043,33.869500,-121.749500,14.044,32.916,NaN,NaN
20040118,022051,1063073,33.868667,-121.750667,14.049,32.916,NaN,NaN
20040118,022121,1063103,33.868000,-121.752000,14.051,32.917,NaN,NaN
20040118,022151,1063133,33.867167,-121.753167,14.052,32.915,NaN,NaN
20040118,022221,1063163,33.866333,-121.754500,14.052,32.916,NaN,NaN
20040118,022251,1063193,33.865500,-121.755667,14.052,32.916,NaN,NaN
20040118,022321,1063223,33.864667,-121.757000,14.052,32.916,NaN,NaN
20040118,022351,1063253,33.863833,-121.758333,14.053,32.916,NaN,NaN
20040118,022421,1063283,33.863000,-121.759500,14.053,32.915,NaN,NaN
20040118,022451,1063313,33.862167,-121.760833,14.055,32.915,NaN,NaN
20040118,022521,1063343,33.861333,-121.762167,14.054,32.916,NaN,NaN
20040118,022551,1063373,33.860667,-121.763500,14.054,32.917,NaN,NaN
20040118,022621,1063403,33.859833,-121.764667,14.054,32.917,NaN,NaN
20040118,022651,1063433,33.859000,-121.766000,14.055,32.918,NaN,NaN
20040118,022721,1063463,33.858333,-121.767333,14.054,32.919,NaN,NaN
20040118,022751,1063493,33.857500,-121.768667,14.054,32.919,NaN,NaN
20040118,022821,1063523,33.856667,-121.770000,14.052,32.919,NaN,NaN
20040118,022851,1063553,33.856000,-121.771333,14.050,32.920,NaN,NaN
20040118,022921,1063583,33.855167,-121.772667,14.046,32.922,NaN,NaN
20040118,022951,1063613,33.854333,-121.774000,14.042,32.923,NaN,NaN
20040118,023021,1063643,33.853667,-121.775333,14.039,32.924,NaN,NaN
20040118,023051,1063673,33.852833,-121.776667,14.038,32.925,NaN,NaN
20040118,023121,1063703,33.852167,-121.778000,14.036,32.926,NaN,NaN
20040118,023151,1063733,33.851333,-121.779333,14.035,32.927,NaN,NaN
20040118,023221,1063763,33.850667,-121.780667,14.035,32.929,NaN,NaN
20040118,023251,1063793,33.849833,-121.782000,14.037,32.929,NaN,NaN
20040118,023321,1063823,33.849167,-121.783333,14.039,32.928,NaN,NaN
20040118,023351,1063853,33.848333,-121.784667,14.039,32.930,NaN,NaN
20040118,023421,1063883,33.847667,-121.786000,14.039,32.929,NaN,NaN
20040118,023451,1063913,33.847000,-121.787333,14.039,32.930,NaN,NaN
20040118,023521,1063943,33.846333,-121.788667,14.038,32.931,NaN,NaN
20040118,023551,1063973,33.845500,-121.790000,14.036,32.933,NaN,NaN
20040118,023621,1064003,33.844833,-121.791333,14.034,32.934,NaN,NaN
20040118,023651,1064033,33.844167,-121.792667,14.032,32.937,NaN,NaN
20040118,023721,1064063,33.843333,-121.794000,14.029,32.939,NaN,NaN
20040118,023751,1064093,33.842667,-121.795333,14.027,32.942,NaN,NaN
20040118,023821,1064123,33.842000,-121.796667,14.023,32.944,NaN,NaN
20040118,023851,1064153,33.841167,-121.798000,14.017,32.947,NaN,NaN
20040118,023921,1064183,33.840500,-121.799333,14.008,32.950,NaN,NaN
20040118,023951,1064213,33.839667,-121.800667,13.995,32.956,NaN,NaN
20040118,024021,1064243,33.839000,-121.802000,13.990,32.958,NaN,NaN
20040118,024051,1064273,33.838167,-121.803333,13.992,32.958,NaN,NaN
20040118,024121,1064303,33.837500,-121.804667,13.992,32.962,NaN,NaN
20040118,024151,1064333,33.836833,-121.806000,13.988,32.964,NaN,NaN
20040118,024221,1064363,33.836000,-121.807333,13.984,32.964,NaN,NaN
20040118,024251,1064393,33.835333,-121.808667,13.983,32.964,NaN,NaN
20040118,024321,1064423,33.834500,-121.810000,13.981,32.963,NaN,NaN
20040118,024351,1064453,33.833833,-121.811333,13.977,32.963,NaN,NaN
20040118,024421,1064483,33.833167,-121.812667,13.975,32.963,NaN,NaN
20040118,024451,1064513,33.832333,-121.814000,13.977,32.964,NaN,NaN
20040118,024521,1064543,33.831667,-121.815333,13.981,32.964,NaN,NaN
20040118,024551,1064573,33.831000,-121.816667,13.986,32.966,NaN,NaN
20040118,024621,1064603,33.830167,-121.818000,13.988,32.968,NaN,NaN
20040118,024651,1064633,33.829500,-121.819500,13.986,32.970,NaN,NaN
20040118,024721,1064663,33.828667,-121.820833,13.985,32.972,NaN,NaN
20040118,024751,1064693,33.828000,-121.822000,13.986,32.973,NaN,NaN
20040118,024821,1064723,33.827167,-121.823333,13.985,32.975,NaN,NaN
20040118,024851,1064753,33.826500,-121.824833,13.982,32.976,NaN,NaN
20040118,024921,1064783,33.825833,-121.826167,13.978,32.976,NaN,NaN
20040118,024951,1064813,33.825000,-121.827500,13.981,32.980,NaN,NaN
20040118,025021,1064843,33.824333,-121.828833,13.983,32.981,NaN,NaN
20040118,025051,1064873,33.823667,-121.830167,13.981,32.982,NaN,NaN
20040118,025121,1064903,33.822833,-121.831500,13.980,32.984,NaN,NaN
20040118,025151,1064933,33.822000,-121.832667,13.980,32.984,NaN,NaN
20040118,025221,1064963,33.821333,-121.834167,13.977,32.985,NaN,NaN
20040118,025251,1064993,33.820667,-121.835500,13.976,32.984,NaN,NaN
20040118,025321,1065023,33.819833,-121.836833,13.975,32.986,NaN,NaN